Olive Branch, MS

9:46 AM CDT on October 21, 2017 (GMT -0500)
Olive Branch

Weather History for KOLV - February, 2013

Change the Weather History Date:

Friday, February 22, 2013

  Actual Average (KMEM) Record (KMEM)
Temperature  
Mean Temperature 40 °F -  
Max Temperature 46 °F 56 °F 76 °F (2017)
Min Temperature 35 °F 39 °F 10 °F (1963)
Degree Days  
Heating Degree Days 24    
Moisture  
Dew Point 38 °F    
Average Humidity 98    
Maximum Humidity 100    
Minimum Humidity 76    
Precipitation  
Precipitation 0.01 in - - ()
Sea Level Pressure  
Sea Level Pressure 30.01 in    
Wind  
Wind Speed 4 mph (WNW)    
Max Wind Speed 10 mph    
Max Gust Speed -    
Visibility 6 miles    
Events Fog    
Averages and records for this station are not official NWS values.
T = Trace of Precipitation, MM = Missing Value Source: NWS Daily Summary

Daily Weather History Graph

Daily Weather History Graph

Search for Another Location

Airport or City:

Trip Planner

Search our weather history database for the weather conditions in past years. The results will help you decide how hot, cold, wet, or windy it might be!

Date:

Astronomy

Feb. 22, 2013 Rise Set
Actual Time 6:36 AM CST 5:48 PM CST
Civil Twilight 6:11 AM CST 6:14 PM CST
Nautical Twilight 5:41 AM CST 6:43 PM CST
Astronomical Twilight 5:12 AM CST 7:13 PM CST
Moon 3:04 PM CST (2/22) 4:17 AM CST (2/22)
Length of Visible Light 12h 03m
Length of Day
11h 11m
Waxing Gibbous, 90% of the Moon is Illuminated
Feb 22
Waxing Gibbous
Feb 25
Full
Mar 4
Last Quarter
Mar 11
New
Mar 19
First Quarter

Hourly Weather History & Observations

Time (CST) Temp. Windchill Dew Point Humidity Pressure Visibility Wind Dir Wind Speed Gust Speed Precip Events Conditions
12:15 AM 42.8 °F 40.1 °F 42.8 °F 100% 29.89 in 5.0 mi West 4.6 mph - 0.00 in   Overcast
12:35 AM 41.0 °F 38.0 °F 41.0 °F 100% 29.89 in 4.0 mi WSW 4.6 mph - 0.00 in   Overcast
1:15 AM 39.2 °F 35.9 °F 39.2 °F 100% 29.91 in 4.0 mi WSW 4.6 mph - 0.00 in   Overcast
1:35 AM 39.2 °F 35.9 °F 39.2 °F 100% 29.91 in 3.0 mi SW 4.6 mph - 0.00 in   Overcast
1:55 AM 39.2 °F 34.2 °F 39.2 °F 100% 29.93 in 3.0 mi SW 6.9 mph - 0.00 in   Overcast
2:15 AM 39.2 °F 37.0 °F 39.2 °F 100% 29.92 in 3.0 mi WSW 3.5 mph - 0.00 in   Overcast
2:35 AM 39.2 °F 35.0 °F 39.2 °F 100% 29.92 in 2.5 mi SSW 5.8 mph - 0.00 in   Overcast
2:55 AM 37.4 °F 34.9 °F 37.4 °F 100% 29.93 in 0.5 mi SSW 3.5 mph - 0.00 in   Overcast
3:15 AM 37.4 °F 34.9 °F 37.4 °F 100% 29.93 in 0.2 mi South 3.5 mph - 0.00 in   Overcast
3:35 AM 37.4 °F 34.9 °F 37.4 °F 100% 29.93 in 0.2 mi SSW 3.5 mph - 0.00 in   Overcast
3:55 AM 37.4 °F 33.8 °F 37.4 °F 100% 29.94 in 0.2 mi SSW 4.6 mph - 0.00 in   Overcast
4:15 AM 37.4 °F - 37.4 °F 100% 29.95 in 0.2 mi Calm Calm - 0.00 in   Overcast
4:35 AM 37.4 °F - 37.4 °F 100% 29.95 in 0.2 mi Calm Calm - 0.00 in   Overcast
4:55 AM 35.6 °F - 35.6 °F 100% 29.95 in 0.2 mi Calm Calm - 0.00 in   Overcast
5:15 AM 35.6 °F - 35.6 °F 100% 29.96 in 0.2 mi Calm Calm - 0.00 in   Overcast
5:35 AM 35.6 °F - 35.6 °F 100% 29.97 in 0.2 mi Calm Calm - 0.00 in   Overcast
5:55 AM 35.6 °F 32.8 °F 35.6 °F 100% 29.98 in 0.2 mi WSW 3.5 mph - 0.01 in   Overcast
7:50 AM 35.6 °F - 35.6 °F 100% 30.05 in 0.2 mi Calm Calm - N/A Fog Fog
8:50 AM 35.6 °F - 35.6 °F 100% 30.06 in 1.5 mi Calm Calm - N/A   Overcast
9:50 AM 37.4 °F 33.8 °F 37.4 °F 100% 30.09 in 5.0 mi West 4.6 mph - N/A   Overcast
10:50 AM 37.4 °F 32.8 °F 37.4 °F 100% 30.09 in 8.0 mi WSW 5.8 mph - N/A   Overcast
11:50 AM 37.4 °F 34.9 °F 37.4 °F 100% 30.07 in 10.0 mi WSW 3.5 mph - N/A   Overcast
12:50 PM 39.2 °F 35.0 °F 39.2 °F 100% 30.06 in 10.0 mi WSW 5.8 mph - N/A   Overcast
1:50 PM 42.8 °F - 42.8 °F 100% 30.04 in 10.0 mi Calm Calm - N/A   Mostly Cloudy
3:50 PM 46.4 °F - 41.0 °F 81% 30.02 in 10.0 mi Calm Calm - N/A   Mostly Cloudy
4:55 PM 46.4 °F 44.3 °F 39.2 °F 76% 30.01 in 10.0 mi NNW 4.6 mph - N/A   Mostly Cloudy
5:50 PM 44.6 °F - 39.2 °F 81% 30.03 in 10.0 mi Calm Calm - N/A   Mostly Cloudy
6:50 PM 42.8 °F - 39.2 °F 87% 30.04 in 10.0 mi Calm Calm - N/A   Mostly Cloudy
7:55 PM 42.8 °F 39.3 °F 41.0 °F 93% 30.06 in 10.0 mi NNW 5.8 mph - N/A   Mostly Cloudy
8:15 PM 42.8 °F 38.6 °F 41.0 °F 93% 30.06 in 8.0 mi NNW 6.9 mph - 0.00 in   Mostly Cloudy
8:35 PM 39.2 °F 34.2 °F 39.2 °F 100% 30.05 in 9.0 mi North 6.9 mph - 0.00 in   Partly Cloudy
8:55 PM 39.2 °F 32.5 °F 39.2 °F 100% 30.06 in 8.0 mi North 10.4 mph - 0.00 in   Partly Cloudy
9:15 PM 39.2 °F 32.5 °F 39.2 °F 100% 30.07 in 10.0 mi NNW 10.4 mph - 0.00 in   Partly Cloudy
9:35 PM 39.2 °F 32.5 °F 39.2 °F 100% 30.08 in 10.0 mi NNW 10.4 mph - 0.00 in   Partly Cloudy
9:55 PM 37.4 °F 32.1 °F 37.4 °F 100% 30.09 in 10.0 mi North 6.9 mph - 0.00 in   Partly Cloudy
10:15 PM 37.4 °F 32.1 °F 37.4 °F 100% 30.08 in 7.0 mi North 6.9 mph - 0.00 in   Clear
10:35 PM 37.4 °F 30.8 °F 37.4 °F 100% 30.06 in 8.0 mi North 9.2 mph - 0.00 in   Clear
10:55 PM 37.4 °F 30.8 °F 37.4 °F 100% 30.06 in 10.0 mi North 9.2 mph - 0.00 in   Clear
11:15 PM 37.4 °F 31.4 °F 37.4 °F 100% 30.06 in 10.0 mi North 8.1 mph - 0.00 in   Clear
11:35 PM 37.4 °F 31.4 °F 37.4 °F 100% 30.07 in 10.0 mi North 8.1 mph - 0.00 in   Clear
11:55 PM 35.6 °F 28.6 °F 35.6 °F 100% 30.06 in 9.0 mi North 9.2 mph - 0.00 in   Clear